FW0959 Weather Reports


Display with metric or nautical units.
time (UTC)temp
F
wind
direction
speed
MPH
gust
MPH
rain 1hr
in
rain 24hr
in
rain mn
in
humidity
%
barometer
mb
20260509000030 57 292 0.0 0.0 0.00 0.00 0.00 76 1018.2
20260508235031 58 292 0.0 0.0 0.00 0.00 0.00 75 1018.1
20260508234128 58 292 0.0 0.0 0.00 0.00 0.00 74 1018.1
20260508233130 59 292 0.0 0.0 0.00 0.00 0.00 73 1017.9
20260508232228 59 292 0.0 0.0 0.00 0.00 0.00 72 1018.1
20260508232129 59 292 0.0 0.0 0.00 0.00 0.00 72 1018.2
20260508230130 60 292 0.0 1.0 0.00 0.00 0.00 71 1018.0
20260508225130 60 292 0.0 0.0 0.00 0.00 0.00 70 1017.9
20260508225029 60 292 0.0 0.0 0.00 0.00 0.00 70 1017.9
20260508224030 61 292 0.0 0.0 0.00 0.00 0.00 69 1018.0
20260508223029 61 292 0.0 2.0 0.00 0.00 0.00 67 1018.2
20260508222029 61 292 0.0 1.0 0.00 0.00 0.00 66 1018.1
20260508221128 61 292 0.0 0.0 0.00 0.00 0.00 66 1017.8
20260508221028 61 292 1.0 2.0 0.00 0.00 0.00 66 1018.0
20260508220931 61 292 0.0 1.0 0.00 0.00 0.00 66 1018.0
20260508220028 62 292 0.0 1.0 0.00 0.00 0.00 63 1017.9
20260508215030 62 292 0.0 0.0 0.00 0.00 0.00 62 1017.6
20260508214128 62 292 1.0 2.0 0.00 0.00 0.00 61 1017.8
20260508214030 63 292 2.0 2.0 0.00 0.00 0.00 61 1017.8
20260508213031 63 270 1.0 2.0 0.00 0.00 0.00 59 1017.9
20260508212128 63 247 3.0 4.0 0.00 0.00 0.00 58 1018.0
20260508211131 64 292 1.0 4.0 0.00 0.00 0.00 57 1017.7
20260508210129 64 337 0.0 1.0 0.00 0.00 0.00 56 1017.6
20260508205131 65 292 2.0 4.0 0.00 0.00 0.00 58 1017.5
20260508204129 65 292 1.0 3.0 0.00 0.00 0.00 55 1017.5
20260508203227 65 315 0.0 1.0 0.00 0.00 0.00 53 1017.5
20260508203132 65 315 0.0 0.0 0.00 0.00 0.00 53 1017.4
20260508202129 66 247 0.0 1.0 0.00 0.00 0.00 53 1017.6
20260508201128 66 247 2.0 4.0 0.00 0.00 0.00 53 1017.9
20260508200130 66 292 2.0 3.0 0.00 0.00 0.00 51 1017.7
20260508195130 67 275 1.0 3.0 0.00 0.00 0.00 53 1017.8
20260508194129 66 9 0.0 1.0 0.00 0.00 0.00 52 1018.0
20260508193130 65 337 1.0 2.0 0.00 0.00 0.00 52 1018.4
20260508192130 66 289 2.0 3.0 0.00 0.00 0.00 49 1018.7
20260508191129 67 292 2.0 4.0 0.00 0.00 0.00 50 1018.6
20260508190228 66 247 0.0 1.0 0.00 0.00 0.00 50 1018.7
20260508184327 68 292 3.0 5.0 0.00 0.00 0.00 51 1018.9
20260508183328 67 247 2.0 4.0 0.00 0.00 0.00 55 1019.1
20260508183228 67 240 2.0 3.0 0.00 0.00 0.00 55 1019.2
20260508182230 65 359 2.0 3.0 0.00 0.00 0.00 53 1019.3
20260508181228 65 243 2.0 4.0 0.00 0.00 0.00 55 1019.4
20260508180229 65 247 0.0 0.0 0.00 0.00 0.00 54 1019.6
20260508175228 66 247 2.0 2.0 0.00 0.00 0.00 55 1019.5
20260508174231 64 247 0.0 1.0 0.00 0.00 0.00 57 1019.5
20260508172229 65 248 1.0 2.0 0.00 0.00 0.00 54 1020.0
20260508171328 64 250 0.0 2.0 0.00 0.00 0.00 55 1020.0
20260508165328 63 263 0.0 2.0 0.00 0.00 0.00 56 1020.5
20260508163329 64 247 2.0 3.0 0.00 0.00 0.00 59 1020.6
20260508161329 61 247 0.0 0.0 0.00 0.00 0.00 64 1020.9
20260508160428 62 293 1.0 3.0 0.00 0.00 0.00 67 1020.9
20260508160330 62 329 1.0 3.0 0.00 0.00 0.00 67 1020.9
20260508155428 61 292 2.0 3.0 0.00 0.00 0.00 71 1021.1
20260508154428 58 243 0.0 3.0 0.00 0.00 0.00 79 1021.1
20260508153429 55 337 0.0 1.0 0.00 0.00 0.00 83 1021.2
20260508152429 53 29 0.0 2.0 0.00 0.00 0.00 88 1021.4
20260508151429 53 45 2.0 2.0 0.00 0.00 0.00 89 1021.4
20260508150430 52 45 1.0 1.0 0.00 0.00 0.00 89 1021.2
20260508145428 52 45 2.0 2.0 0.00 0.00 0.00 91 1021.2
20260508145328 52 45 2.0 2.0 0.00 0.00 0.00 91 1021.1
20260508144329 51 45 1.0 2.0 0.00 0.00 0.00 91 1021.2
20260508143331 50 45 2.0 2.0 0.00 0.00 0.00 92 1021.2
20260508141431 49 45 2.0 2.0 0.00 0.00 0.00 94 1021.3
20260508140429 48 45 1.0 2.0 0.00 0.00 0.00 96 1021.5
20260508135430 47 202 0.0 0.0 0.00 0.00 0.00 97 1021.6
20260508133428 45 202 0.0 0.0 0.00 0.00 0.00 99 1021.7
20260508132430 44 202 0.0 0.0 0.00 0.01 0.00 98 1021.7
20260508132328 44 202 0.0 0.0 0.00 0.01 0.00 98 1021.6
20260508131329 43 202 0.0 0.0 0.00 0.01 0.00 98 1021.6
20260508124328 41 202 0.0 0.0 0.00 0.03 0.00 98 1021.3
20260508122329 41 202 0.0 0.0 0.00 0.04 0.00 98 1021.1
20260508121328 41 202 0.0 0.0 0.00 0.05 0.00 98 1021.0
20260508120329 41 202 0.0 0.0 0.00 0.06 0.00 98 1020.8
20260508115330 41 202 0.0 0.0 0.00 0.07 0.00 98 1020.8
20260508114329 41 202 0.0 0.0 0.00 0.09 0.00 98 1020.6
20260508113328 41 202 0.0 0.0 0.00 0.11 0.00 98 1020.4
20260508112330 41 202 0.0 0.0 0.00 0.13 0.00 98 1020.3
20260508111331 41 202 0.0 0.0 0.00 0.14 0.00 98 1020.2
20260508110330 41 202 0.0 0.0 0.00 0.15 0.00 97 1020.0
20260508104330 41 202 0.0 0.0 0.00 0.19 0.00 97 1019.8
20260508103330 41 202 0.0 0.0 0.00 0.22 0.00 97 1019.8
20260508102330 41 202 0.0 0.0 0.00 0.22 0.00 97 1019.5
20260508101329 41 202 0.0 0.0 0.00 0.22 0.00 97 1019.4
20260508100428 42 202 0.0 0.0 0.00 0.22 0.00 97 1019.2
20260508095429 42 202 0.0 0.0 0.00 0.22 0.00 97 1019.0
20260508094429 42 202 0.0 0.0 0.00 0.23 0.00 97 1018.7
20260508094328 42 202 0.0 0.0 0.00 0.23 0.00 97 1018.7
20260508093328 42 202 0.0 0.0 0.00 0.23 0.00 97 1018.8
20260508092331 43 202 0.0 0.0 0.00 0.23 0.00 96 1018.8
20260508092230 43 202 0.0 0.0 0.00 0.23 0.00 96 1018.7
20260508091230 43 202 0.0 1.0 0.00 0.23 0.00 96 1018.8
20260508090327 43 202 0.0 1.0 0.00 0.23 0.00 96 1018.9
20260508085330 43 202 0.0 0.0 0.00 0.23 0.00 96 1018.7
20260508084328 43 202 0.0 0.0 0.00 0.23 0.00 96 1018.4
20260508080330 44 247 0.0 0.0 0.00 0.23 0.00 95 1018.5
20260508075331 44 247 0.0 0.0 0.00 0.23 0.00 95 1018.3
20260508074330 44 247 0.0 1.0 0.00 0.24 0.00 95 1018.3
20260508073330 44 247 0.0 0.0 0.00 0.26 0.00 94 1018.5
20260508072428 44 247 0.0 0.0 0.00 0.26 0.00 94 1018.5
20260508071430 45 247 0.0 0.0 0.00 0.26 0.00 94 1018.3
20260508071329 45 247 0.0 0.0 0.00 0.26 0.00 94 1018.2
20260508065328 45 247 0.0 0.0 0.00 0.27 0.00 93 1018.4
20260508064330 46 247 2.0 2.0 0.00 0.27 0.00 92 1018.1
20260508064228 46 247 0.0 1.0 0.00 0.27 0.00 92 1018.1
20260508061328 47 202 0.0 0.0 0.00 0.27 0.00 91 1018.2
20260508060328 47 202 0.0 1.0 0.00 0.28 0.00 90 1018.2
20260508055327 47 202 0.0 0.0 0.00 0.30 0.00 88 1018.0
20260508054329 48 202 0.0 0.0 0.00 0.32 0.00 87 1018.0
20260508054231 48 202 0.0 0.0 0.00 0.32 0.00 87 1018.1
20260508052229 50 90 0.0 0.0 0.00 0.38 0.00 84 1018.3
20260508051230 50 22 2.0 2.0 0.00 0.39 0.00 84 1018.2
20260508051131 50 22 2.0 3.0 0.00 0.39 0.00 84 1018.3
20260508050130 50 22 2.0 2.0 0.00 0.41 0.00 83 1018.3
20260508045130 50 22 2.0 2.0 0.00 0.44 0.00 84 1018.2
20260508044129 51 22 2.0 2.0 0.00 0.45 0.00 84 1018.3
20260508043129 51 22 2.0 3.0 0.00 0.45 0.00 84 1018.0
20260508042227 51 22 1.0 1.0 0.00 0.46 0.00 84 1018.1
20260508041231 51 22 2.0 2.0 0.00 0.46 0.00 83 1017.9
20260508040228 51 22 2.0 4.0 0.00 0.46 0.00 83 1018.0
20260508035308 51 22 2.0 3.0 0.00 0.46 0.46 83 1018.0
20260508034308 52 22 2.0 3.0 0.00 0.46 0.46 84 1017.9
20260508032409 52 22 2.0 3.0 0.00 0.46 0.46 81 1018.0
20260508031406 52 45 1.0 2.0 0.00 0.46 0.46 82 1018.2
20260508030409 52 67 1.0 2.0 0.00 0.46 0.46 83 1017.9
20260508025507 51 22 1.0 2.0 0.00 0.46 0.46 82 1017.8
20260508023508 52 22 0.0 0.0 0.00 0.46 0.46 80 1017.6
20260508022509 53 112 0.0 0.0 0.00 0.46 0.46 80 1017.5
20260508021509 53 112 0.0 0.0 0.00 0.46 0.46 79 1017.4
20260508015609 53 90 0.0 1.0 0.00 0.48 0.46 82 1017.2
20260508014608 53 112 0.0 0.0 0.00 0.50 0.46 83 1017.2
20260508013610 53 112 0.0 0.0 0.00 0.50 0.46 83 1017.0
20260508012608 53 112 0.0 1.0 0.00 0.50 0.46 84 1016.8
20260508011607 53 112 0.0 2.0 0.00 0.50 0.46 84 1016.8
20260508010608 53 135 1.0 2.0 0.00 0.51 0.46 84 1016.4
20260508005609 54 135 0.0 2.0 0.00 0.52 0.46 83 1016.5
20260508004706 54 135 2.0 2.0 0.00 0.52 0.46 82 1016.5
20260508002708 55 112 2.0 3.0 0.00 0.56 0.46 80 1016.2
20260508001709 56 159 1.0 3.0 0.00 0.59 0.46 78 1016.1
20260508000707 57 157 0.0 1.0 0.00 0.62 0.46 77 1015.8